H2SAT (HEINRICH HERTZ)

Last updated on Fri Dec 19 2025 00:02:54 GMT+0000 (Coordinated Universal Time)

1 57213U 23093A 25352.10391942 .00000027 00000+0 00000+0 0 9998 2 57213 0.0452 136.9968 0000852 176.7836 171.2998 1.00270997 9108
UTC large
Height (km)
Speed (km/s)
/
Latitude / Longitude
Inclination (degrees)
Orbital Period (minutes)
Azimuth
Elevation
Range (km)
Doppler Factor

Next 0 passes for location: London (51.5072 / 0.1276)

Sorry there are no passes over London.